Location: Newark
(35.8833°N, 14.5000°E)
Time: 07:50:31
(UTC+00:00)

UNISAT 6 - Pass Details

Date: 26 May 2019
Orbit: 606 x 690 km, 97.8° (Epoch: 25 June)

Event Time Altitude Azimuth Distance (km) Brightness Sun altitude
Rises 21:20:05 0° 346° (NNW) 2,907 ? -28.3°
Reaches altitude 10° 21:23:55 10° 312° (NW) 1,979 ? -28.6°
Maximum altitude 21:25:06 11° 295° (WNW) 1,904 ? -28.7°
Drops below altitude 10° 21:26:17 10° 279° (W) 1,967 ? -28.8°
Enters shadow 21:28:26 - 256° (WSW) 2,378 ? -29.0°
